Regional Weather Roundup
Issued by NWS Green Bay, WI

Home | Current Version | Previous Version | Text Only | Print | Product List | Glossary On
Versions: 1 2 3 4 5 6 7 8 9 10 11 12 13 14 15 16 17 18 19 20 21 22 23 24 25 26 27 28 29 30 31 32 33 34 35 36 37 38 39 40 41 42 43 44 45 46 47 48 49 50
000
ASUS43 KGRB 242111
RWRGRB

NORTH-CENTRAL AND NORTHEAST WISCONSIN REGIONAL WEATHER ROUNDUP
NATIONAL WEATHER SERVICE GREEN BAY WI
400 PM CDT WED MAY 24 2017

WIZ005-009-010>012-018-019-242200-
NORTH CENTRAL WISCONSIN

CITY           SKY/WX    TMP DP  RH WIND       PRES   REMARKS
IRONWOOD       CLOUDY    56  44  64 NE10      29.75F
MANITOWISH WTR DRIZZLE   51  49  93 NE6       29.74F
ARBOR VITAE    CLOUDY    53  47  80 NE5       29.73S
EAGLE RIVER    CLOUDY    51  46  81 NE8       29.74R
LAND O LAKES   CLOUDY    51  47  85 NE8       29.76F
RHINELANDER    CLOUDY    54  47  77 NE9       29.73S
PHILLIPS       CLOUDY    54  46  75 NE7       29.72F
ANTIGO         CLOUDY    54  49  84 NE10      29.71S
TOMAHAWK       CLOUDY    53  46  77 N5        29.72S
MERRILL        CLOUDY    55  49  79 E9        29.71S
$$

WIZ013-073-242200-
NORTHEAST WISCONSIN

CITY           SKY/WX    TMP DP  RH WIND       PRES   REMARKS
IRON MOUNTAIN  CLOUDY    55  47  74 N9        29.71S
MARINETTE      LGT RAIN  51  49  92 E13       29.70F
OCONTO         CLOUDY    55  49  82 NE10      29.68F
$$

WIZ017-030-035>037-045-242200-
CENTRAL WISCONSIN

CITY           SKY/WX    TMP DP  RH WIND       PRES   REMARKS
MEDFORD        CLOUDY    52  47  81 NE8       29.70S
WAUSAU         CLOUDY    54  49  83 NE9       29.68F
MOSINEE        CLOUDY    54  52  94 NE7       29.70F
MARSHFIELD     CLOUDY    53  48  83 NE10      29.69S HAZE
WISC RAPIDS    CLOUDY    56  49  77 NE9       29.69F
STEVENS POINT  CLOUDY    51  50  97 NE9       29.69F
WAUPACA        CLOUDY    55  51  85 N7        29.69S
SHAWANO        CLOUDY    55  50  85 NE9       29.70R
CLINTONVILLE   CLOUDY    54  50  87 NE7       29.69S
WAUTOMA        CLOUDY    54  50  86 N10       29.68S
$$

WIZ038-039-048-051-242200-
FOX VALLEY

CITY           SKY/WX    TMP DP  RH WIND       PRES   REMARKS
NWS GREEN BAY  CLOUDY    54  52  93 NE13      29.67F
APPLETON       CLOUDY    52  54 100 N13       29.66S
OSHKOSH        CLOUDY    56  51  84 NE14      29.65F
FOND DU LAC    CLOUDY    57  51  80 N17       29.64F
$$

WIZ022-050-052-242200-
EAST CENTRAL WISCONSIN

CITY           SKY/WX    TMP DP  RH WIND       PRES   REMARKS
EPHRAIM        CLOUDY    52  52  99 NE8       29.69S
WASHINGTON ISL CLOUDY    51  48  90 E13G20    29.70S
STURGEON BAY   LGT RAIN  53  51  93 N8        29.68F
MANITOWOC      CLOUDY    55  50  83 N10       29.65S
SHEBOYGAN      CLOUDY    57  54  89 N14       29.62F
$$

LMZ563-521-522-541>543-242200-
LAKESHORE

STATION/POSITION TIME  TEMP    WIND        PRES    VSBY  WAVE
                       AIR SEA DIR/SP/G                  HT/PER
                 (UTC) (F)     (DEG/KT/KT) (MB)    (MI)  (FT/S)
SHEBOYGAN LKSHOR 2100   49      10/ 20/ 22 1003.2F
KEWAUNEE LKSHORE 2048   49      20/ 10/ 14 1003.9F
NORTHPORT PIER   2030   49      70/  9/ 11 1006.1S
N MID LAKE BUOY  2050   42 40   30/ 10/ 12 1006.4F         1/ 3
SISTER BAY LKSHO 2021   55     100/  9/ 13   N/A
CHAMBERS ISLAND  2040   48      20/  8/ 10 1005.8S
MENOMINEE LKSHOR 2048           20/ 14/ 15 1005.0F
$$




USA.gov is the U.S. government's official web portal to all federal, state and local government web resources and services.